ROA212 SCIE-SCEL

Flight info

Callsign ROA212
Flight time 0h 47m
Altitude 32000
Route LODOS4N LODOS UQ808 EROLO EROLO8A
Aircraft A321/M-SDE3FGHIRWY/LB1

Departure

Time 2026-04-24 03:07
Airport Carriel Sur International Airport (SCIE)

Arrival

Time 2026-04-24 03:54
Airport Comodoro Arturo Merino Benítez International Airport (SCEL)
Time Latitude Longitude Altitude Speed Heading
2026-04-24 02:35 -36.77603 -73.06033 55 ft 0 kts 170°
2026-04-24 02:42 -36.77598 -73.05986 54 ft 0 kts 179°
2026-04-24 02:42 -36.77603 -73.05942 58 ft 0 kts 191°
2026-04-24 02:58 -36.77598 -73.05941 53 ft 4 kts 193°
2026-04-24 02:59 -36.77573 -73.05930 53 ft 4 kts 216°
2026-04-24 02:59 -36.77555 -73.05907 54 ft 4 kts 249°
2026-04-24 02:59 -36.77552 -73.05881 57 ft 0 kts 281°
2026-04-24 03:02 -36.77549 -73.05898 58 ft 7 kts 281°
2026-04-24 03:02 -36.77539 -73.05996 60 ft 13 kts 272°
2026-04-24 03:02 -36.77523 -73.06106 58 ft 13 kts 291°
2026-04-24 03:02 -36.77499 -73.06203 55 ft 9 kts 258°
2026-04-24 03:03 -36.77539 -73.06233 56 ft 9 kts 207°
2026-04-24 03:03 -36.77626 -73.06287 58 ft 16 kts 205°
2026-04-24 03:03 -36.77726 -73.06344 60 ft 15 kts 205°
2026-04-24 03:03 -36.77822 -73.06401 59 ft 15 kts 205°
2026-04-24 03:04 -36.77916 -73.06456 58 ft 15 kts 205°
2026-04-24 03:04 -36.78008 -73.06511 58 ft 14 kts 205°
2026-04-24 03:04 -36.78098 -73.06563 52 ft 14 kts 205°
2026-04-24 03:04 -36.78186 -73.06614 52 ft 13 kts 204°
2026-04-24 03:05 -36.78244 -73.06673 52 ft 8 kts 250°
2026-04-24 03:05 -36.78237 -73.06735 61 ft 6 kts 289°
2026-04-24 03:05 -36.78226 -73.06765 59 ft 4 kts 295°
2026-04-24 03:05 -36.78209 -73.06811 65 ft 8 kts 295°
2026-04-24 03:06 -36.78175 -73.06850 66 ft 5 kts 10°
2026-04-24 03:06 -36.78160 -73.06843 59 ft 0 kts 24°
2026-04-24 03:06 -36.77940 -73.06716 56 ft 74 kts 25°
2026-04-24 03:07 -36.77270 -73.06328 62 ft 135 kts 25°
2026-04-24 03:07 -36.76304 -73.05768 323 ft 157 kts 25°
2026-04-24 03:07 -36.75311 -73.05182 891 ft 163 kts 26°
2026-04-24 03:07 -36.74209 -73.04518 1140 ft 189 kts 25°
2026-04-24 03:08 -36.72946 -73.03783 1443 ft 211 kts 25°
2026-04-24 03:08 -36.69994 -73.01977 2070 ft 258 kts 34°
2026-04-24 03:08 -36.68558 -73.00578 2847 ft 268 kts 43°
2026-04-24 03:09 -36.67263 -72.98905 3762 ft 270 kts 52°
2026-04-24 03:09 -36.66083 -72.97066 4675 ft 273 kts 54°
2026-04-24 03:09 -36.64912 -72.95172 5539 ft 279 kts 53°
2026-04-24 03:09 -36.63698 -72.93260 6364 ft 284 kts 50°
2026-04-24 03:10 -36.62431 -72.91347 7172 ft 289 kts 49°
2026-04-24 03:10 -36.61135 -72.89456 7961 ft 293 kts 47°
2026-04-24 03:10 -36.59786 -72.87536 8787 ft 297 kts 46°
2026-04-24 03:10 -36.58407 -72.85603 9614 ft 301 kts 46°
2026-04-24 03:11 -36.57002 -72.83648 10337 ft 309 kts 45°
2026-04-24 03:11 -36.55510 -72.81581 10595 ft 333 kts 45°
2026-04-24 03:11 -36.53916 -72.79375 10957 ft 350 kts 46°
2026-04-24 03:11 -36.52277 -72.77095 11622 ft 356 kts 46°
2026-04-24 03:12 -36.50617 -72.74782 12363 ft 361 kts 45°
2026-04-24 03:12 -36.48926 -72.72455 13121 ft 365 kts 44°
2026-04-24 03:12 -36.47157 -72.70180 13856 ft 368 kts 42°
2026-04-24 03:12 -36.45321 -72.67935 14544 ft 372 kts 41°
2026-04-24 03:13 -36.43446 -72.65699 15217 ft 376 kts 40°
2026-04-24 03:13 -36.41547 -72.63445 15891 ft 379 kts 40°
2026-04-24 03:13 -36.39639 -72.61167 16581 ft 383 kts 40°
2026-04-24 03:13 -36.37720 -72.58858 17278 ft 386 kts 41°
2026-04-24 03:14 -36.35790 -72.56521 17958 ft 390 kts 41°
2026-04-24 03:14 -36.33872 -72.54185 18598 ft 393 kts 41°
2026-04-24 03:14 -36.31917 -72.51795 19163 ft 397 kts 41°
2026-04-24 03:14 -36.29938 -72.49381 19737 ft 401 kts 41°
2026-04-24 03:15 -36.27940 -72.46950 20311 ft 404 kts 41°
2026-04-24 03:15 -36.25923 -72.44497 20873 ft 407 kts 41°
2026-04-24 03:15 -36.23891 -72.42034 21411 ft 411 kts 41°
2026-04-24 03:15 -36.21835 -72.39549 21953 ft 414 kts 41°
2026-04-24 03:16 -36.19765 -72.37045 22477 ft 418 kts 41°
2026-04-24 03:16 -36.17676 -72.34519 23006 ft 421 kts 41°
2026-04-24 03:16 -36.15571 -72.31976 23528 ft 425 kts 41°
2026-04-24 03:16 -36.13445 -72.29412 23991 ft 428 kts 41°
2026-04-24 03:17 -36.11303 -72.26829 24418 ft 431 kts 41°
2026-04-24 03:17 -36.09147 -72.24231 24838 ft 434 kts 41°
2026-04-24 03:17 -36.06974 -72.21615 25264 ft 437 kts 41°
2026-04-24 03:17 -36.04686 -72.19146 25685 ft 437 kts 33°
2026-04-24 03:18 -36.02126 -72.17140 26100 ft 435 kts 23°
2026-04-24 03:18 -35.99426 -72.15575 26506 ft 436 kts 20°
2026-04-24 03:18 -35.96658 -72.14017 26925 ft 438 kts 20°
2026-04-24 03:18 -35.93875 -72.12448 27334 ft 441 kts 20°
2026-04-24 03:19 -35.91074 -72.10867 27727 ft 444 kts 20°
2026-04-24 03:19 -35.88256 -72.09274 28121 ft 447 kts 20°
2026-04-24 03:19 -35.85420 -72.07671 28495 ft 450 kts 20°
2026-04-24 03:19 -35.82563 -72.06058 28883 ft 453 kts 20°
2026-04-24 03:20 -35.79693 -72.04438 29261 ft 455 kts 20°
2026-04-24 03:20 -35.76804 -72.02806 29637 ft 458 kts 20°
2026-04-24 03:20 -35.73897 -72.01164 29994 ft 461 kts 20°
2026-04-24 03:20 -35.70975 -71.99513 30344 ft 463 kts 20°
2026-04-24 03:21 -35.68038 -71.97857 30640 ft 466 kts 20°
2026-04-24 03:21 -35.65086 -71.96196 30963 ft 468 kts 20°
2026-04-24 03:21 -35.62115 -71.94533 31291 ft 470 kts 20°
2026-04-24 03:21 -35.59136 -71.92868 31671 ft 470 kts 20°
2026-04-24 03:22 -35.56206 -71.91230 32089 ft 469 kts 20°
2026-04-24 03:22 -35.53239 -71.89573 32215 ft 466 kts 20°
2026-04-24 03:22 -35.50336 -71.87943 32240 ft 452 kts 20°
2026-04-24 03:23 -35.44675 -71.84761 32236 ft 445 kts 20°
2026-04-24 03:23 -35.39043 -71.81625 32237 ft 444 kts 20°
2026-04-24 03:24 -35.33411 -71.78494 32226 ft 444 kts 20°
2026-04-24 03:24 -35.27779 -71.75363 32237 ft 445 kts 20°
2026-04-24 03:25 -35.22146 -71.72230 32233 ft 445 kts 20°
2026-04-24 03:25 -35.16516 -71.69101 32230 ft 444 kts 20°
2026-04-24 03:26 -35.10887 -71.65977 32224 ft 444 kts 20°
2026-04-24 03:26 -35.05292 -71.62893 32222 ft 444 kts 20°
2026-04-24 03:27 -34.99664 -71.59794 32219 ft 444 kts 20°
2026-04-24 03:27 -34.94034 -71.56686 32217 ft 444 kts 20°
2026-04-24 03:28 -34.88411 -71.53584 32209 ft 444 kts 20°
2026-04-24 03:28 -34.82784 -71.50487 32212 ft 444 kts 20°
2026-04-24 03:29 -34.77153 -71.47399 32193 ft 444 kts 20°
2026-04-24 03:29 -34.71556 -71.44340 32200 ft 444 kts 20°
2026-04-24 03:30 -34.65921 -71.41261 32202 ft 444 kts 20°
2026-04-24 03:30 -34.60257 -71.38296 32204 ft 443 kts 18°
2026-04-24 03:31 -34.54534 -71.35523 32074 ft 444 kts 17°
2026-04-24 03:31 -34.51660 -71.34150 31822 ft 444 kts 17°
2026-04-24 03:31 -34.48795 -71.32773 31477 ft 442 kts 17°
2026-04-24 03:31 -34.45943 -71.31387 30916 ft 441 kts 18°
2026-04-24 03:32 -34.43110 -71.29994 30360 ft 439 kts 18°
2026-04-24 03:32 -34.40292 -71.28602 29774 ft 437 kts 18°
2026-04-24 03:32 -34.37491 -71.27217 29240 ft 432 kts 18°
2026-04-24 03:32 -34.34719 -71.25851 28708 ft 428 kts 18°
2026-04-24 03:33 -34.31970 -71.24501 28182 ft 425 kts 18°
2026-04-24 03:33 -34.29241 -71.23164 27667 ft 421 kts 18°
2026-04-24 03:33 -34.26572 -71.21857 27164 ft 417 kts 18°
2026-04-24 03:33 -34.23892 -71.20547 26680 ft 414 kts 17°
2026-04-24 03:34 -34.21238 -71.19253 26202 ft 410 kts 17°
2026-04-24 03:34 -34.18606 -71.17970 25735 ft 406 kts 17°
2026-04-24 03:34 -34.15998 -71.16697 25269 ft 402 kts 17°
2026-04-24 03:34 -34.13414 -71.15440 24816 ft 399 kts 17°
2026-04-24 03:35 -34.10853 -71.14196 24369 ft 395 kts 17°
2026-04-24 03:35 -34.09132 -71.13362 24055 ft 394 kts 17°
2026-04-24 03:35 -34.06634 -71.12149 23576 ft 391 kts 17°
2026-04-24 03:35 -34.04122 -71.10926 23097 ft 387 kts 17°
2026-04-24 03:36 -34.01638 -71.09715 22643 ft 383 kts 17°
2026-04-24 03:36 -33.99184 -71.08519 22198 ft 378 kts 18°
2026-04-24 03:36 -33.96756 -71.07337 21746 ft 375 kts 18°
2026-04-24 03:36 -33.94352 -71.06170 21300 ft 371 kts 18°
2026-04-24 03:37 -33.91964 -71.05018 20846 ft 369 kts 18°
2026-04-24 03:37 -33.89590 -71.03872 20404 ft 367 kts 18°
2026-04-24 03:37 -33.87227 -71.02729 19940 ft 365 kts 18°
2026-04-24 03:37 -33.84876 -71.01590 19483 ft 363 kts 19°
2026-04-24 03:38 -33.82539 -71.00460 19039 ft 361 kts 19°
2026-04-24 03:38 -33.80211 -70.99336 18596 ft 360 kts 19°
2026-04-24 03:38 -33.77896 -70.98218 18113 ft 358 kts 19°
2026-04-24 03:38 -33.75593 -70.97105 17672 ft 355 kts 19°
2026-04-24 03:39 -33.73314 -70.96003 17236 ft 351 kts 19°
2026-04-24 03:39 -33.71056 -70.94909 16811 ft 348 kts 19°
2026-04-24 03:39 -33.68820 -70.93825 16391 ft 345 kts 19°
2026-04-24 03:39 -33.66601 -70.92753 15972 ft 343 kts 19°
2026-04-24 03:40 -33.63682 -70.91352 15431 ft 340 kts 19°
2026-04-24 03:40 -33.62200 -70.90640 15149 ft 339 kts 19°
2026-04-24 03:40 -33.60019 -70.89593 14731 ft 337 kts 19°
2026-04-24 03:40 -33.57850 -70.88552 14321 ft 335 kts 19°
2026-04-24 03:41 -33.55779 -70.87349 13897 ft 336 kts 29°
2026-04-24 03:41 -33.53799 -70.85882 13454 ft 333 kts 29°
2026-04-24 03:41 -33.51831 -70.84429 13029 ft 331 kts 29°
2026-04-24 03:41 -33.49878 -70.82993 12606 ft 328 kts 29°
2026-04-24 03:42 -33.47946 -70.81572 12183 ft 325 kts 29°
2026-04-24 03:42 -33.46024 -70.80158 11762 ft 323 kts 30°
2026-04-24 03:42 -33.44119 -70.78757 11344 ft 320 kts 30°
2026-04-24 03:42 -33.42236 -70.77375 10751 ft 311 kts 30°
2026-04-24 03:43 -33.40450 -70.76062 10348 ft 292 kts 30°
2026-04-24 03:43 -33.38757 -70.74819 10219 ft 286 kts 30°
2026-04-24 03:43 -33.37052 -70.73573 10096 ft 287 kts 30°
2026-04-24 03:43 -33.35345 -70.72330 9944 ft 288 kts 30°
2026-04-24 03:44 -33.33650 -70.71094 9701 ft 280 kts 30°
2026-04-24 03:44 -33.32000 -70.69971 9405 ft 266 kts 21°
2026-04-24 03:44 -33.30248 -70.69374 8822 ft 257 kts
2026-04-24 03:44 -33.28474 -70.69355 8492 ft 257 kts 353°
2026-04-24 03:45 -33.26704 -70.69580 8162 ft 255 kts 354°
2026-04-24 03:45 -33.24940 -70.69793 7832 ft 254 kts 354°
2026-04-24 03:45 -33.23183 -70.70001 7502 ft 253 kts 354°
2026-04-24 03:45 -33.21438 -70.70209 7177 ft 251 kts 354°
2026-04-24 03:46 -33.19702 -70.70415 6854 ft 250 kts 355°
2026-04-24 03:46 -33.18002 -70.70597 6721 ft 238 kts 355°
2026-04-24 03:46 -33.16407 -70.70821 6601 ft 225 kts 350°
2026-04-24 03:46 -33.14892 -70.71055 6404 ft 216 kts 354°
2026-04-24 03:47 -33.13403 -70.71223 6089 ft 215 kts 355°
2026-04-24 03:47 -33.11929 -70.71452 5979 ft 214 kts 342°
2026-04-24 03:47 -33.10723 -70.72448 5988 ft 215 kts 307°
2026-04-24 03:47 -33.10191 -70.74061 5767 ft 214 kts 274°
2026-04-24 03:48 -33.10526 -70.75764 5439 ft 214 kts 239°
2026-04-24 03:48 -33.11398 -70.77202 5115 ft 214 kts 231°
2026-04-24 03:48 -33.12339 -70.78564 4989 ft 213 kts 230°
2026-04-24 03:48 -33.13292 -70.79919 4992 ft 214 kts 228°
2026-04-24 03:49 -33.14451 -70.81003 4999 ft 208 kts 206°
2026-04-24 03:49 -33.15759 -70.81467 5001 ft 187 kts 186°
2026-04-24 03:49 -33.17005 -70.81451 4990 ft 174 kts 177°
2026-04-24 03:49 -33.18200 -70.81387 4993 ft 170 kts 177°
2026-04-24 03:50 -33.19379 -70.81325 4952 ft 169 kts 177°
2026-04-24 03:50 -33.20547 -70.81262 4793 ft 168 kts 177°
2026-04-24 03:50 -33.21708 -70.81200 4592 ft 166 kts 177°
2026-04-24 03:50 -33.22861 -70.81139 4368 ft 165 kts 177°
2026-04-24 03:51 -33.24007 -70.81078 4163 ft 165 kts 177°
2026-04-24 03:51 -33.25147 -70.81017 3948 ft 164 kts 177°
2026-04-24 03:51 -33.26283 -70.80956 3737 ft 163 kts 177°
2026-04-24 03:51 -33.27413 -70.80895 3528 ft 162 kts 176°
2026-04-24 03:52 -33.28523 -70.80836 3342 ft 157 kts 176°
2026-04-24 03:52 -33.29600 -70.80779 3113 ft 154 kts 176°
2026-04-24 03:52 -33.30647 -70.80723 2907 ft 152 kts 177°
2026-04-24 03:52 -33.31702 -70.80666 2701 ft 151 kts 177°
2026-04-24 03:53 -33.32753 -70.80610 2488 ft 151 kts 177°
2026-04-24 03:53 -33.33801 -70.80554 2277 ft 151 kts 177°
2026-04-24 03:53 -33.34848 -70.80498 2071 ft 150 kts 176°
2026-04-24 03:53 -33.35889 -70.80442 1868 ft 149 kts 177°
2026-04-24 03:54 -33.36925 -70.80390 1669 ft 149 kts 177°
2026-04-24 03:54 -33.37934 -70.80335 1573 ft 132 kts 177°
2026-04-24 03:54 -33.38665 -70.80294 1575 ft 79 kts 177°
2026-04-24 03:54 -33.39051 -70.80274 1574 ft 37 kts 177°
2026-04-24 03:55 -33.39260 -70.80237 1572 ft 28 kts 161°
2026-04-24 03:55 -33.39415 -70.80135 1568 ft 24 kts 147°
2026-04-24 03:55 -33.39473 -70.80091 1567 ft 0 kts 147°
2026-04-24 03:55 -33.39474 -70.80090 1567 ft 0 kts 147°
2026-04-24 03:56 -33.39495 -70.80070 1566 ft 9 kts 137°
2026-04-24 03:56 -33.39526 -70.80001 1565 ft 10 kts 103°
2026-04-24 03:56 -33.39529 -70.79920 1565 ft 11 kts 88°
2026-04-24 03:56 -33.39526 -70.79821 1565 ft 11 kts 88°
2026-04-24 03:57 -33.39523 -70.79733 1565 ft 10 kts 87°
2026-04-24 03:57 -33.39542 -70.79699 1565 ft 4 kts 176°
2026-04-24 03:57 -33.39565 -70.79698 1565 ft 3 kts 178°
2026-04-24 03:57 -33.39583 -70.79697 1565 ft 3 kts 178°
2026-04-24 03:58 -33.39599 -70.79697 1565 ft 2 kts 178°
2026-04-24 03:58 -33.39603 -70.79696 1565 ft 0 kts 178°